This is the latest recevied weather packets stored in our database for station/object KB4JHU-15. If no packets are shown the sender has not sent any weather packets the latest 10 day(s).
| Time | Temp. | Humidity | Pressure | Rain* | Wind** | Luminosity | Snow |
|---|---|---|---|---|---|---|---|
| 1787997134 | 19.44° C | 92% | - | 0 mm | - | - | - |
| 1787995333 | 19.44° C | 92% | - | 0 mm | - | - | - |
| 1787993532 | 19.44° C | 90% | - | 0 mm | - | - | - |
| 1787991731 | 20° C | 90% | - | 0 mm | - | - | - |
| 1787989930 | 20.56° C | 88% | - | 0 mm | - | - | - |
| 1787988129 | 21.11° C | 87% | - | 0 mm | - | - | - |
| 1787986328 | 21.11° C | 85% | - | 0 mm | - | - | - |
| 1787984527 | 21.67° C | 82% | - | 0 mm | - | - | - |
| 1787982726 | 22.22° C | 81% | - | 0 mm | - | - | - |
| 1787981016 | 22.78° C | 80% | - | 0 mm | - | - | - |
| 1787980925 | 22.78° C | 80% | - | 0 mm | - | - | - |
| 1787979124 | 22.78° C | 80% | - | 0 mm | - | - | - |
| 1787977323 | 22.78° C | 79% | - | 0 mm | - | - | - |
| 1787975522 | 23.89° C | 76% | - | 0 mm | - | - | - |
| 1787973721 | 23.33° C | 76% | - | 0 mm | - | - | - |
| 1787971920 | 23.89° C | 76% | - | 0 mm | - | - | - |
| 1787970119 | 24.44° C | 76% | - | 0 mm | - | - | - |
| 1787968318 | 25° C | 73% | - | 0 mm | - | - | - |
| 1787966517 | 26.11° C | 67% | - | 0 mm | - | - | - |
| 1787964716 | 27.22° C | 60% | - | 0 mm | - | - | - |
| 1787962915 | 29.44° C | 53% | - | 0 mm | - | - | - |
| 1787961114 | 30.56° C | 48% | - | 0 mm | - | - | - |
| 1787959313 | 31.67° C | 45% | - | 0 mm | - | - | - |
| 1787957512 | 31.67° C | 42% | - | 0 mm | - | - | - |
| 1787955711 | 32.22° C | 42% | - | 0 mm | - | - | - |
* Rain latest hour (hover to see other rain measurements)
** Current wind speed in m/s (hover to see current wind gust speed)